[[{"header":{"parameterUnit":"m.s-1","parameterCategory":1,"la1":30.2992,"la2":30.254,"lo1":-89.0895,"lo2":-89.0443,"dy":0.0025,"dx":0.0025,"nx":19,"ny":19,"refTime":"2026-03-22T03:00:00:Z","depth":0,"parameterNumber":2,"parameterNumberName":"U-component_of_WINDS"},"data":[0,0,0,0.6596,0.6598,0.6722,0.6722,0.6877,0.6878,0,0,0,0,0,0,0,0,0,0,0,0.6551,0.6552,0.6595,0.6598,0.6721,0.6722,0.6877,0.6878,0,0,0,0,0,0,0,0,0,0,0,0.6551,0.6552,0.6553,0.6599,0.6721,0.6722,0.6877,0.6786,0,0,0,0,0,0,0,0,0,0,0.6667,0.6617,0.6552,0.6553,0.6599,0.6721,0.6722,0.6782,0.6792,0.6818,0,0.6834,0,0.6858,0.6888,0.6888,0,0,0,0.6606,0.6609,0.6648,0.6553,0.66,0.6721,0.6668,0.6787,0.6798,0.6831,0.6836,0.6842,0.6861,0.6889,0.689,0.7005,0.7005,0,0,0.6599,0.6571,0.664,0.6655,0.6629,0.6664,0.6672,0.6794,0.68,0.6837,0.6846,0.6863,0.689,0.6891,0.7005,0.7005,0,0,0,0.6574,0.6566,0.6603,0.6648,0.667,0.6667,0.6676,0.6795,0.6809,0.6848,0.6865,0.6891,0.6892,0.7004,0.7005,0.6985,0,0,0,0.6571,0.6551,0.6599,0.6583,0.6668,0.6733,0.6674,0.6801,0.6815,0.6864,0.6891,0.6894,0.7004,0.7005,0.6985,0.6982,0,0,0,0.6546,0.6549,0.6563,0.6581,0.6633,0.6732,0.6753,0.6804,0.6825,0.6889,0.6894,0.7004,0.7004,0.6985,0.6982,0.7005,0,0,0,0.6513,0.6546,0.6562,0.6606,0.6631,0.6716,0.6752,0.6819,0.687,0.6891,0.7004,0.7005,0.6985,0.6982,0.7005,0.702,0.7022,0,0,0.6539,0.6548,0.6576,0.6594,0.6668,0.67,0.6774,0.6851,0.6886,0.6965,0.6968,0.6985,0.6982,0.7005,0.7045,0.7046,0,0,0,0.6575,0.6594,0.662,0.6665,0.6721,0.6772,0.6839,0.6868,0.6936,0.6918,0.7,0.6999,0.7014,0.7022,0.7024,0.704,0.7007,0.7007,0.7007,0.6572,0.661,0.6661,0.6715,0.6759,0.6828,0.6869,0.6921,0.695,0.6969,0.6993,0.7012,0.7021,0.7022,0.7038,0.7003,0.7003,0.7003,0.7003,0.6614,0.665,0.6685,0.6746,0.6789,0.6844,0.6913,0.6932,0.6993,0.6996,0.7012,0.7014,0.7023,0.7039,0.7002,0.7002,0.7002,0.7002,0.7002,0.6618,0.6642,0.6673,0.6743,0.6795,0.6851,0.6906,0.6945,0.6982,0.6997,0.7029,0.7029,0.7037,0.7009,0.7009,0.7009,0.7009,0.7009,0.7009,0.6609,0.6646,0.6685,0.6747,0.6782,0.6834,0.6905,0.6943,0.6996,0.702,0.7021,0.705,0.7014,0.7006,0.701,0.701,0.701,0.701,0.701,0.664,0.6639,0.6699,0.6734,0.6813,0.6863,0.6911,0.6985,0.7023,0.705,0.7076,0.7043,0.7057,0.7056,0.7049,0.7065,0.7065,0.7065,0.7065,0.6645,0.6654,0.6725,0.6779,0.6836,0.6885,0.6959,0.7017,0.7077,0.7104,0.7108,0.7102,0.7099,0.7115,0.7113,0.7107,0.7137,0.7138,0.7138,0.6667,0.6684,0.6736,0.6789,0.6854,0.6911,0.6982,0.7049,0.7118,0.7142,0.7127,0.7124,0.7115,0.7109,0.7134,0.7129,0.712,0,0]},{"header":{"parameterUnit":"m.s-1","parameterCategory":1,"la1":30.2992,"la2":30.254,"lo1":-89.0895,"lo2":-89.0443,"dy":0.0025,"dx":0.0025,"nx":19,"ny":19,"refTime":"2026-03-22T03:00:00:Z","depth":0,"parameterNumber":3,"parameterNumberName":"V-component_of_WINDS"},"data":[0,0,0,-0.6407,-0.6408,-0.6511,-0.6512,-0.6596,-0.6597,0,0,0,0,0,0,0,0,0,0,0,-0.6344,-0.6344,-0.6407,-0.6409,-0.6511,-0.6512,-0.6596,-0.6597,0,0,0,0,0,0,0,0,0,0,0,-0.6345,-0.6344,-0.6343,-0.6409,-0.6511,-0.6512,-0.6596,-0.6536,0,0,0,0,0,0,0,0,0,0,-0.6445,-0.6354,-0.6344,-0.6343,-0.6409,-0.6511,-0.6512,-0.6534,-0.654,-0.6529,0,-0.6507,0,-0.6553,-0.6599,-0.6599,0,0,0,-0.6433,-0.6349,-0.6406,-0.6343,-0.641,-0.6511,-0.6472,-0.6538,-0.6544,-0.6536,-0.6509,-0.6514,-0.6554,-0.6599,-0.66,-0.6451,-0.6449,0,0,-0.6427,-0.6346,-0.6401,-0.6409,-0.6386,-0.6468,-0.6475,-0.6543,-0.6508,-0.6509,-0.6516,-0.6556,-0.66,-0.66,-0.6453,-0.6451,0,0,0,-0.6395,-0.634,-0.6397,-0.6404,-0.6426,-0.6471,-0.6478,-0.6506,-0.6531,-0.6518,-0.6557,-0.66,-0.66,-0.6455,-0.6452,-0.6282,0,0,0,-0.6392,-0.6322,-0.6393,-0.6344,-0.6423,-0.6466,-0.6438,-0.6526,-0.6536,-0.6556,-0.66,-0.6601,-0.6457,-0.6454,-0.6291,-0.6214,0,0,0,-0.6349,-0.6317,-0.6321,-0.634,-0.6381,-0.6467,-0.6497,-0.653,-0.6559,-0.6599,-0.6601,-0.6459,-0.6454,-0.6299,-0.6228,-0.6153,0,0,0,-0.6279,-0.6165,-0.6316,-0.6207,-0.6379,-0.636,-0.6497,-0.6488,-0.6502,-0.66,-0.6457,-0.6452,-0.6302,-0.6236,-0.6161,-0.6074,-0.603,0,0,-0.609,-0.614,-0.6082,-0.6221,-0.6153,-0.6351,-0.6262,-0.6352,-0.6432,-0.6441,-0.6439,-0.6288,-0.6229,-0.6155,-0.5815,-0.5779,0,0,0,-0.5995,-0.5952,-0.5953,-0.5963,-0.603,-0.6084,-0.6197,-0.6233,-0.6246,-0.6419,-0.6244,-0.6211,-0.6171,-0.6133,-0.6103,-0.6075,-0.6432,-0.6432,-0.6433,-0.5608,-0.5718,-0.5632,-0.5755,-0.5764,-0.5886,-0.5905,-0.5975,-0.608,-0.6038,-0.604,-0.582,-0.5773,-0.5751,-0.572,-0.6004,-0.6004,-0.6003,-0.6003,-0.5343,-0.5301,-0.5451,-0.5419,-0.5538,-0.5515,-0.5632,-0.571,-0.5708,-0.5826,-0.5796,-0.5913,-0.5708,-0.5688,-0.5991,-0.5993,-0.5994,-0.5996,-0.5996,-0.5101,-0.51,-0.5146,-0.5178,-0.519,-0.5323,-0.5315,-0.5424,-0.5527,-0.5498,-0.5515,-0.5518,-0.5535,-0.5499,-0.5498,-0.5497,-0.5497,-0.5496,-0.5496,-0.483,-0.4889,-0.4868,-0.4935,-0.496,-0.5007,-0.5135,-0.5164,-0.5224,-0.5304,-0.5305,-0.5417,-0.5668,-0.5728,-0.5484,-0.5486,-0.5488,-0.5489,-0.549,-0.4517,-0.4608,-0.4574,-0.4599,-0.4693,-0.4701,-0.4843,-0.4894,-0.4934,-0.4928,-0.5051,-0.5218,-0.5276,-0.5301,-0.5351,-0.5025,-0.5025,-0.5025,-0.5025,-0.4312,-0.4354,-0.4349,-0.4383,-0.4429,-0.4556,-0.4523,-0.4625,-0.4744,-0.4777,-0.4842,-0.4919,-0.494,-0.4986,-0.5018,-0.5067,-0.4676,-0.4675,-0.4675,-0.4127,-0.418,-0.4126,-0.4244,-0.4327,-0.4398,-0.4371,-0.4408,-0.4563,-0.4663,-0.4807,-0.4821,-0.4948,-0.4983,-0.5081,-0.5127,-0.522,0,0]}]]